When you browse on this site, cookies collect data to enhance your experience and personalize the content and advertising you see.
Visit our Privacy Policy to learn more. By continuing to use the site, you agree to this use of cookies and data.
  • In Portugal
  • List of Countries
  • For 7 days
  • Water Temperature
  • Satellite Maps
  • Weather Map
  • Weather Widgets
  • user-avatar
    Login

    Hourly Weather Romanovo

    Today, 26 April, Friday

    Time Temperature Precipitation Wind Pressure Humidity
    00:00 -1°C° 0 mm 1 mps 736 mmHg 87%
    01:00 -1°C° 0 mm 1 mps 736 mmHg 88%
    02:00 -2°C° 0 mm 1 mps 736 mmHg 88%
    03:00 -2°C° 0 mm 1 mps 736 mmHg 89%
    04:00 -3°C° 0 mm 1 mps 736 mmHg 91%
    05:00 -2°C° 0 mm 1 mps 736 mmHg 84%
    06:00 0°C° 0 mm 1 mps 735 mmHg 76%
    07:00 -1°C° 0 mm 2 mps 735 mmHg 69%
    08:00 +2°C° 0 mm 2 mps 735 mmHg 62%
    09:00 +2°C° 0 mm 3 mps 735 mmHg 55%
    10:00 +4°C° 0 mm 4 mps 734 mmHg 48%
    11:00 +4°C° 0.3 mm 4 mps 734 mmHg 51%
    12:00 +4°C° 0.3 mm 4 mps 734 mmHg 54%
    13:00 +4°C° 0.3 mm 4 mps 733 mmHg 57%
    14:00 +4°C° 0.3 mm 4 mps 733 mmHg 58%
    15:00 +4°C° 0.3 mm 4 mps 733 mmHg 59%
    16:00 +4°C° 0.3 mm 4 mps 732 mmHg 60%
    17:00 +3°C° 0.1 mm 3 mps 732 mmHg 63%
    18:00 +2°C° 0.1 mm 3 mps 732 mmHg 66%
    19:00 +1°C° 0.1 mm 3 mps 732 mmHg 69%
    20:00 0°C° 0 mm 3 mps 733 mmHg 74%
    21:00 -2°C° 0 mm 2 mps 733 mmHg 79%
    22:00 -4°C° 0 mm 2 mps 733 mmHg 84%
    23:00 -4°C° 0 mm 2 mps 733 mmHg 86%

    Tomorrow, 27 April, Saturday

    Time Temperature Precipitation Wind Pressure Humidity
    00:00 -5°C° 0 mm 2 mps 733 mmHg 88%
    01:00 -4°C° 0 mm 1 mps 734 mmHg 90%
    02:00 -4°C° 0 mm 1 mps 734 mmHg 90%
    03:00 -4°C° 0 mm 1 mps 734 mmHg 91%
    04:00 -4°C° 0 mm 1 mps 734 mmHg 91%
    05:00 -3°C° 0 mm 1 mps 734 mmHg 82%
    06:00 -4°C° 0 mm 2 mps 734 mmHg 74%
    07:00 -3°C° 0 mm 2 mps 735 mmHg 66%
    08:00 -2°C° 0 mm 2 mps 734 mmHg 61%
    09:00 -1°C° 0 mm 2 mps 734 mmHg 56%
    10:00 +1°C° 0 mm 2 mps 734 mmHg 51%
    11:00 +1°C° 0.5 mm 2 mps 733 mmHg 62%
    12:00 +1°C° 0.5 mm 2 mps 732 mmHg 73%
    13:00 -1°C° 0.5 mm 2 mps 731 mmHg 83%
    14:00 0°C° 1.1 mm 3 mps 731 mmHg 83%
    15:00 +1°C° 1.1 mm 3 mps 730 mmHg 84%
    16:00 +2°C° 1.1 mm 3 mps 729 mmHg 84%
    17:00 +3°C° 0.7 mm 3 mps 728 mmHg 83%
    18:00 +4°C° 0.7 mm 4 mps 727 mmHg 82%
    19:00 +5°C° 0.7 mm 4 mps 727 mmHg 80%
    20:00 +4°C° 0.6 mm 4 mps 726 mmHg 84%
    21:00 +4°C° 0.6 mm 3 mps 726 mmHg 87%
    22:00 +3°C° 0.6 mm 3 mps 726 mmHg 90%
    23:00 +3°C° 1.1 mm 3 mps 725 mmHg 93%

    Day after tomorrow, 28 April, Sunday

    Time Temperature Precipitation Wind Pressure Humidity
    00:00 +4°C° 1.1 mm 2 mps 725 mmHg 95%
    01:00 +3°C° 1.1 mm 2 mps 725 mmHg 98%
    02:00 +4°C° 0.4 mm 1 mps 725 mmHg 98%
    03:00 +3°C° 0.4 mm 1 mps 725 mmHg 98%
    04:00 +3°C° 0.4 mm 1 mps 725 mmHg 98%
    05:00 +1°C° 0.7 mm 2 mps 725 mmHg 96%
    06:00 +1°C° 0.7 mm 2 mps 724 mmHg 95%
    07:00 -1°C° 0.7 mm 3 mps 724 mmHg 94%
    08:00 -1°C° 0.8 mm 3 mps 725 mmHg 92%
    09:00 -2°C° 0.8 mm 4 mps 725 mmHg 91%
    10:00 -2°C° 0.8 mm 4 mps 725 mmHg 89%
    11:00 -1°C° 0.2 mm 4 mps 726 mmHg 86%
    12:00 -1°C° 0.2 mm 5 mps 726 mmHg 83%
    13:00 0°C° 0.2 mm 5 mps 727 mmHg 79%
    14:00 0°C° 0.1 mm 5 mps 727 mmHg 79%
    15:00 0°C° 0.1 mm 5 mps 728 mmHg 79%
    16:00 0°C° 0.1 mm 5 mps 728 mmHg 78%
    17:00 -1°C° 0.1 mm 4 mps 729 mmHg 80%
    18:00 -2°C° 0.1 mm 4 mps 729 mmHg 82%
    19:00 -2°C° 0.1 mm 4 mps 729 mmHg 84%
    20:00 -3°C° 0 mm 4 mps 730 mmHg 86%
    21:00 -4°C° 0 mm 3 mps 730 mmHg 88%
    22:00 -5°C° 0 mm 3 mps 731 mmHg 90%
    23:00 -5°C° 0 mm 3 mps 731 mmHg 91%

    29 April, Monday

    Time Temperature Precipitation Wind Pressure Humidity
    00:00 -5°C° 0 mm 3 mps 731 mmHg 92%
    01:00 -5°C° 0 mm 2 mps 732 mmHg 93%
    02:00 -5°C° 0 mm 2 mps 732 mmHg 93%
    03:00 -5°C° 0 mm 2 mps 732 mmHg 93%
    04:00 -5°C° 0 mm 2 mps 733 mmHg 93%
    05:00 -6°C° 0 mm 3 mps 733 mmHg 90%
    06:00 -5°C° 0 mm 3 mps 734 mmHg 86%
    07:00 -5°C° 0 mm 3 mps 734 mmHg 82%
    08:00 -4°C° 0.1 mm 3 mps 734 mmHg 78%
    09:00 -4°C° 0.1 mm 3 mps 735 mmHg 74%
    10:00 -2°C° 0.1 mm 3 mps 735 mmHg 71%
    11:00 -2°C° 0.1 mm 3 mps 735 mmHg 68%
    12:00 -1°C° 0.1 mm 3 mps 735 mmHg 65%
    13:00 -1°C° 0.1 mm 3 mps 735 mmHg 62%
    14:00 -1°C° 0.1 mm 3 mps 735 mmHg 61%
    15:00 -1°C° 0.1 mm 3 mps 735 mmHg 60%
    16:00 -1°C° 0.1 mm 3 mps 735 mmHg 59%
    17:00 -2°C° 0 mm 2 mps 735 mmHg 65%
    18:00 -2°C° 0 mm 2 mps 735 mmHg 70%
    19:00 -1°C° 0 mm 1 mps 736 mmHg 75%
    20:00 -2°C° 0 mm 1 mps 736 mmHg 78%
    21:00 -5°C° 0 mm 0 mps 736 mmHg 81%
    22:00 -6°C° 0 mm 0 mps 736 mmHg 85%
    23:00 -6°C° 0 mm 0 mps 736 mmHg 86%

    30 April, Tuesday

    Time Temperature Precipitation Wind Pressure Humidity
    00:00 -6°C° 0 mm 0 mps 736 mmHg 87%
    01:00 -6°C° 0 mm 1 mps 736 mmHg 89%
    02:00 -6°C° 0 mm 1 mps 736 mmHg 90%
    03:00 -7°C° 0 mm 1 mps 736 mmHg 91%
    04:00 -7°C° 0 mm 1 mps 736 mmHg 92%
    05:00 -6°C° 0 mm 1 mps 736 mmHg 86%
    06:00 -5°C° 0 mm 2 mps 736 mmHg 80%
    07:00 -4°C° 0 mm 2 mps 736 mmHg 74%
    08:00 -4°C° 0 mm 3 mps 735 mmHg 70%
    09:00 -2°C° 0 mm 3 mps 735 mmHg 66%
    10:00 -1°C° 0 mm 3 mps 735 mmHg 61%
    11:00 -1°C° 0 mm 3 mps 735 mmHg 60%
    12:00 -2°C° 0 mm 4 mps 735 mmHg 60%
    13:00 -1°C° 0 mm 4 mps 734 mmHg 59%
    14:00 -1°C° 0.1 mm 4 mps 734 mmHg 59%
    15:00 -1°C° 0.1 mm 4 mps 734 mmHg 58%
    16:00 -1°C° 0.1 mm 4 mps 734 mmHg 58%
    17:00 -1°C° 0 mm 3 mps 734 mmHg 62%
    18:00 -1°C° 0 mm 3 mps 734 mmHg 67%
    19:00 -2°C° 0 mm 2 mps 733 mmHg 71%
    20:00 -2°C° 0 mm 3 mps 733 mmHg 74%
    21:00 -4°C° 0 mm 3 mps 733 mmHg 77%
    22:00 -5°C° 0 mm 3 mps 733 mmHg 80%
    23:00 -5°C° 0 mm 3 mps 733 mmHg 81%

    1 May, Wednesday

    Time Temperature Precipitation Wind Pressure Humidity
    00:00 -5°C° 0 mm 3 mps 732 mmHg 82%
    01:00 -5°C° 0 mm 3 mps 732 mmHg 83%
    02:00 -5°C° 0.1 mm 4 mps 732 mmHg 83%
    03:00 -4°C° 0.1 mm 4 mps 731 mmHg 83%
    04:00 -4°C° 0.1 mm 4 mps 731 mmHg 83%
    05:00 -5°C° 0.3 mm 5 mps 731 mmHg 83%
    06:00 -4°C° 0.3 mm 5 mps 731 mmHg 83%
    07:00 -2°C° 0.3 mm 5 mps 731 mmHg 83%
    08:00 -1°C° 0.2 mm 5 mps 731 mmHg 76%
    09:00 -1°C° 0.2 mm 5 mps 731 mmHg 69%
    10:00 0°C° 0.2 mm 5 mps 731 mmHg 63%
    11:00 0°C° 0.1 mm 5 mps 732 mmHg 61%
    12:00 +1°C° 0.1 mm 5 mps 732 mmHg 60%
    13:00 +1°C° 0.1 mm 5 mps 732 mmHg 59%
    14:00 +1°C° 0 mm 5 mps 733 mmHg 59%
    15:00 +1°C° 0 mm 4 mps 733 mmHg 59%
    16:00 +1°C° 0 mm 4 mps 733 mmHg 59%
    17:00 +2°C° 0 mm 3 mps 733 mmHg 65%
    18:00 +2°C° 0 mm 2 mps 733 mmHg 70%
    19:00 +2°C° 0 mm 1 mps 734 mmHg 75%
    20:00 +1°C° 0 mm 1 mps 734 mmHg 79%
    21:00 -1°C° 0 mm 1 mps 734 mmHg 82%
    22:00 -3°C° 0 mm 0 mps 734 mmHg 86%
    23:00 -2°C° 0 mm 1 mps 734 mmHg 87%
    Show more